Location: Asheville, NC
(35.6000°N, 82.5500°W)
Time: 05:32:13
(UTC-05:00)

Vanguard 1 Rocket - Pass Details

Date: 09 February 2018
Orbit: 655 x 4222 km, 34.3° (Epoch: 17 February)

Event Time Altitude Azimuth Distance (km) Brightness Sun altitude
Rises 06:34:21 0° 281° (W) 8,215 - -10.4°
Exits shadow 06:40:30 10° 280° (W) 6,880 11.1 -9.2°
Reaches altitude 10° 06:40:34 10° 280° (W) 6,866 11.1 -9.2°
Maximum altitude 07:00:59 71° 202° (SSW) 2,500 9.6 -5.2°
Drops below altitude 10° 07:11:15 10° 120° (ESE) 3,734 12.2 -3.1°
Sets 07:13:35 0° 118° (ESE) 4,407 13.1 -2.7°
